Radiation Dose at Monitoring Post of Fukushima Daini Nuclear Power Station
Date,Time,MP-1(microSv/h),MP-2(microSv/h),MP-3(microSv/h),MP-4(microSv/h),MP-5(microSv/h),MP-6(microSv/h),MP-7(microSv/h),Wind Direction,Wind Velocity(m/s),Rain
2022/06/23,00:00,0.153,0.142,0.225,0.219,0.216,0.121,0.077,north,2.7,Yes
2022/06/23,00:10,0.153,0.141,0.227,0.222,0.218,0.120,0.078,north,2.1,Yes
2022/06/23,00:20,0.153,0.142,0.226,0.219,0.216,0.121,0.077,north,1.7,Yes
2022/06/23,00:30,0.153,0.142,0.228,0.219,0.216,0.120,0.077,north-northwest,2.7,Yes
2022/06/23,00:40,0.154,0.141,0.227,0.219,0.218,0.120,0.077,north,2.4,Yes
2022/06/23,00:50,0.153,0.140,0.226,0.219,0.217,0.120,0.078,north,1.8,Yes
2022/06/23,01:00,0.154,0.143,0.227,0.221,0.219,0.120,0.078,north,2.4,Yes
2022/06/23,01:10,0.154,0.141,0.226,0.218,0.217,0.122,0.078,north,2.2,Yes
2022/06/23,01:20,0.154,0.141,0.226,0.219,0.217,0.120,0.078,north,1.7,Yes
2022/06/23,01:30,0.154,0.142,0.226,0.217,0.217,0.121,0.077,north,1.7,Yes
2022/06/23,01:40,0.154,0.141,0.228,0.220,0.217,0.121,0.077,north-northwest,1.7,Yes
2022/06/23,01:50,0.155,0.142,0.226,0.218,0.217,0.120,0.077,north,1.6,Yes
2022/06/23,02:00,0.153,0.141,0.228,0.220,0.216,0.120,0.076,north,1.6,Yes
2022/06/23,02:10,0.154,0.142,0.227,0.220,0.218,0.119,0.078,north-northeast,0.7,Yes
2022/06/23,02:20,0.152,0.142,0.228,0.219,0.216,0.121,0.078,-,CALM,Yes
2022/06/23,02:30,0.154,0.143,0.226,0.219,0.217,0.120,0.078,north,0.6,Yes
2022/06/23,02:40,0.154,0.141,0.227,0.219,0.216,0.122,0.078,-,CALM,Yes
2022/06/23,02:50,0.153,0.142,0.226,0.221,0.216,0.121,0.078,-,CALM,Yes
2022/06/23,03:00,0.155,0.141,0.228,0.219,0.219,0.121,0.079,-,CALM,Yes
2022/06/23,03:10,0.153,0.142,0.226,0.221,0.216,0.120,0.077,-,CALM,Yes
2022/06/23,03:20,0.155,0.141,0.227,0.218,0.218,0.120,0.078,-,CALM,Yes
2022/06/23,03:30,0.153,0.143,0.227,0.220,0.217,0.121,0.078,-,CALM,Yes
2022/06/23,03:40,0.155,0.143,0.226,0.219,0.218,0.120,0.078,-,CALM,Yes
2022/06/23,03:50,0.153,0.143,0.227,0.221,0.216,0.120,0.078,-,CALM,Yes
2022/06/23,04:00,0.154,0.142,0.226,0.219,0.216,0.121,0.078,-,CALM,Yes
2022/06/23,04:10,0.154,0.142,0.227,0.218,0.217,0.121,0.078,-,CALM,Yes
2022/06/23,04:20,0.154,0.143,0.226,0.219,0.216,0.121,0.077,north,0.6,Yes
2022/06/23,04:30,0.155,0.143,0.227,0.219,0.220,0.120,0.079,northwest,0.8,Yes
2022/06/23,04:40,0.153,0.142,0.226,0.220,0.215,0.121,0.077,north-northwest,0.6,Yes
2022/06/23,04:50,0.155,0.143,0.228,0.217,0.219,0.120,0.078,north-northeast,1.2,Yes
2022/06/23,05:00,0.153,0.143,0.225,0.220,0.216,0.121,0.077,north-northeast,1.4,Yes
2022/06/23,05:10,0.155,0.143,0.228,0.218,0.217,0.121,0.077,north-northeast,1.7,Yes
2022/06/23,05:20,0.154,0.142,0.226,0.219,0.217,0.119,0.078,north-northeast,1.9,Yes
2022/06/23,05:30,0.154,0.141,0.227,0.218,0.216,0.121,0.077,north-northeast,1.3,Yes
2022/06/23,05:40,0.154,0.142,0.225,0.218,0.218,0.121,0.077,northeast,2.3,Yes
2022/06/23,05:50,0.153,0.141,0.227,0.218,0.215,0.119,0.076,east-northeast,0.9,Yes
2022/06/23,06:00,0.154,0.143,0.226,0.217,0.217,0.120,0.077,-,CALM,Yes
2022/06/23,06:10,0.153,0.141,0.226,0.219,0.215,0.119,0.076,-,CALM,Yes
2022/06/23,06:20,0.154,0.143,0.227,0.217,0.216,0.120,0.078,-,CALM,Yes
2022/06/23,06:30,0.154,0.142,0.226,0.220,0.217,0.120,0.077,north-northeast,0.7,Yes
2022/06/23,06:40,0.154,0.142,0.227,0.218,0.216,0.120,0.077,-,CALM,Yes
2022/06/23,06:50,0.154,0.142,0.225,0.219,0.218,0.120,0.077,north,1.2,Yes
2022/06/23,07:00,0.153,0.142,0.227,0.218,0.215,0.119,0.078,north,0.9,No
2022/06/23,07:10,0.155,0.142,0.225,0.218,0.217,0.121,0.077,-,CALM,No
2022/06/23,07:20,0.153,0.141,0.226,0.220,0.217,0.119,0.076,north-northwest,0.6,No
2022/06/23,07:30,0.154,0.142,0.227,0.218,0.217,0.120,0.077,north,0.8,No
2022/06/23,07:40,0.154,0.141,0.225,0.218,0.217,0.120,0.077,north-northeast,1.2,No
2022/06/23,07:50,0.153,0.142,0.226,0.218,0.216,0.120,0.077,north,1.1,No
2022/06/23,08:00,0.154,0.141,0.225,0.219,0.218,0.120,0.078,north-northwest,0.9,No
2022/06/23,08:10,0.153,0.142,0.228,0.219,0.217,0.120,0.077,north,1.7,No
2022/06/23,08:20,0.153,0.141,0.225,0.217,0.216,0.120,0.078,north,1.3,Yes
2022/06/23,08:30,0.153,0.141,0.227,0.219,0.219,0.121,0.077,north,1.0,No
2022/06/23,08:40,0.154,0.143,0.226,0.217,0.216,0.120,0.077,northwest,1.3,No
2022/06/23,08:50,0.154,0.142,0.226,0.218,0.217,0.120,0.077,northwest,1.3,No
2022/06/23,09:00,0.154,0.141,0.227,0.218,0.218,0.121,0.077,northwest,1.8,No
2022/06/23,09:10,0.154,0.141,0.225,0.217,0.215,0.119,0.078,northwest,1.6,No
2022/06/23,09:20,0.153,0.141,0.228,0.220,0.218,0.120,0.077,northwest,1.5,No
2022/06/23,09:30,0.155,0.141,0.227,0.218,0.216,0.120,0.076,west-northwest,1.1,No
2022/06/23,09:40,0.153,0.141,0.226,0.217,0.215,0.120,0.078,west-northwest,0.8,No
2022/06/23,09:50,0.153,0.142,0.229,0.219,0.218,0.121,0.077,west-northwest,0.6,No
2022/06/23,10:00,0.154,0.141,0.224,0.217,0.217,0.120,0.077,west-southwest,0.7,No
2022/06/23,10:10,0.152,0.142,0.227,0.219,0.215,0.119,0.078,west,0.9,Yes
2022/06/23,10:20,0.154,0.142,0.227,0.219,0.218,0.120,0.077,-,CALM,No
2022/06/23,10:30,0.154,0.140,0.225,0.217,0.217,0.121,0.077,south-southwest,0.8,No
2022/06/23,10:40,0.152,0.142,0.226,0.220,0.216,0.120,0.078,south,0.8,Yes
2022/06/23,10:50,0.154,0.141,0.227,0.221,0.219,0.121,0.077,south-southeast,0.8,Yes
2022/06/23,11:00,0.155,0.142,0.226,0.217,0.217,0.120,0.077,southeast,1.1,Yes
2022/06/23,11:10,0.153,0.143,0.227,0.220,0.215,0.120,0.078,south-southeast,1.0,No
2022/06/23,11:20,0.155,0.142,0.227,0.220,0.217,0.121,0.077,south-southeast,1.0,No
2022/06/23,11:30,0.154,0.141,0.225,0.217,0.217,0.120,0.077,south,0.7,No
2022/06/23,11:40,0.153,0.142,0.226,0.219,0.216,0.120,0.076,south,0.8,No
2022/06/23,11:50,0.155,0.142,0.228,0.219,0.216,0.121,0.078,south-southeast,0.9,Yes
2022/06/23,12:00,0.154,0.141,0.225,0.218,0.220,0.119,0.077,southeast,1.0,Yes
2022/06/23,12:10,0.154,0.142,0.227,0.217,0.217,0.120,0.077,south-southeast,1.0,Yes
2022/06/23,12:20,0.154,0.141,0.228,0.220,0.215,0.120,0.077,south-southeast,0.9,Yes
2022/06/23,12:30,0.153,0.143,0.226,0.218,0.218,0.120,0.078,south-southeast,0.8,Yes
2022/06/23,12:40,0.154,0.142,0.227,0.218,0.218,0.120,0.078,south-southeast,1.5,No
2022/06/23,12:50,0.154,0.141,0.228,0.219,0.215,0.121,0.077,south-southeast,1.9,No
2022/06/23,13:00,0.154,0.143,0.226,0.221,0.215,0.120,0.078,southeast,0.9,No
2022/06/23,13:10,0.153,0.142,0.225,0.218,0.216,0.119,0.078,south-southeast,2.3,No
2022/06/23,13:20,0.155,0.142,0.226,0.217,0.218,0.121,0.077,southeast,2.0,No
2022/06/23,13:30,0.154,0.142,0.229,0.219,0.217,0.121,0.077,south-southeast,2.7,No
2022/06/23,13:40,0.153,0.143,0.228,0.220,0.215,0.120,0.077,southeast,3.2,No
2022/06/23,13:50,0.154,0.141,0.224,0.218,0.217,0.120,0.077,south-southeast,3.4,No
2022/06/23,14:00,0.154,0.143,0.228,0.218,0.219,0.119,0.078,south-southeast,3.5,No
2022/06/23,14:10,0.154,0.142,0.227,0.220,0.217,0.120,0.077,south-southeast,2.5,No
2022/06/23,14:20,0.155,0.141,0.226,0.220,0.217,0.120,0.077,south-southeast,3.0,No
2022/06/23,14:30,0.153,0.142,0.227,0.217,0.219,0.120,0.078,south-southeast,3.3,No
2022/06/23,14:40,0.154,0.142,0.228,0.219,0.218,0.120,0.077,southeast,2.6,No
2022/06/23,14:50,0.155,0.142,0.224,0.219,0.217,0.120,0.076,southeast,2.8,No
2022/06/23,15:00,0.153,0.142,0.224,0.219,0.216,0.121,0.076,south-southeast,4.6,No
2022/06/23,15:10,0.153,0.143,0.228,0.218,0.219,0.119,0.077,south-southeast,4.5,No
2022/06/23,15:20,0.154,0.142,0.227,0.221,0.218,0.120,0.076,south-southeast,4.7,No
2022/06/23,15:30,0.154,0.143,0.227,0.219,0.216,0.120,0.078,south-southeast,4.4,Yes
2022/06/23,15:40,0.153,0.142,0.228,0.218,0.219,0.120,0.077,south-southeast,5.3,No
2022/06/23,15:50,0.155,0.141,0.225,0.221,0.218,0.121,0.077,south-southeast,4.9,No
2022/06/23,16:00,0.154,0.142,0.223,0.220,0.215,0.122,0.078,south-southeast,4.4,No
2022/06/23,16:10,0.153,0.142,0.226,0.218,0.217,0.121,0.077,south-southeast,3.7,No
2022/06/23,16:20,0.155,0.141,0.224,0.220,0.218,0.120,0.078,east,1.4,No
2022/06/23,16:30,0.153,0.142,0.222,0.221,0.217,0.121,0.078,south-southeast,5.2,No
2022/06/23,16:40,0.153,0.142,0.224,0.218,0.215,0.120,0.077,south-southeast,4.9,No
2022/06/23,16:50,0.155,0.141,0.227,0.221,0.219,0.120,0.077,southeast,4.6,No
2022/06/23,17:00,0.154,0.143,0.226,0.221,0.217,0.121,0.078,south-southeast,4.7,No
2022/06/23,17:10,0.153,0.142,0.226,0.218,0.215,0.120,0.077,south-southeast,3.7,No
2022/06/23,17:20,0.155,0.142,0.228,0.221,0.219,0.120,0.077,south-southeast,5.5,No
2022/06/23,17:30,0.154,0.143,0.226,0.221,0.217,0.121,0.077,south-southeast,6.2,No
2022/06/23,17:40,0.153,0.142,0.227,0.218,0.217,0.120,0.077,south-southeast,5.7,No
2022/06/23,17:50,0.154,0.142,0.227,0.221,0.219,0.120,0.078,south,5.4,No
2022/06/23,18:00,0.153,0.143,0.226,0.221,0.217,0.121,0.078,south,4.5,No
2022/06/23,18:10,0.155,0.142,0.229,0.218,0.217,0.120,0.077,south,3.3,No
2022/06/23,18:20,0.155,0.143,0.228,0.222,0.219,0.121,0.078,south,4.3,No
2022/06/23,18:30,0.153,0.143,0.227,0.220,0.216,0.121,0.077,south,4.1,Yes
2022/06/23,18:40,0.155,0.142,0.229,0.219,0.218,0.121,0.077,south,3.7,Yes
2022/06/23,18:50,0.155,0.142,0.227,0.222,0.218,0.121,0.077,south-southeast,3.9,No
2022/06/23,19:00,0.154,0.142,0.228,0.218,0.216,0.121,0.078,south,4.0,Yes
2022/06/23,19:10,0.155,0.142,0.227,0.221,0.219,0.120,0.077,south-southeast,3.1,No
2022/06/23,19:20,0.153,0.143,0.226,0.221,0.219,0.121,0.077,south,3.7,Yes
2022/06/23,19:30,0.155,0.143,0.228,0.219,0.216,0.120,0.078,south-southeast,3.3,Yes
2022/06/23,19:40,0.153,0.143,0.227,0.221,0.220,0.120,0.077,south-southeast,4.2,Yes
2022/06/23,19:50,0.153,0.142,0.227,0.219,0.217,0.121,0.077,south-southeast,5.8,Yes
2022/06/23,20:00,0.154,0.144,0.227,0.220,0.217,0.120,0.077,south-southeast,6.3,Yes
2022/06/23,20:10,0.153,0.141,0.227,0.221,0.218,0.120,0.077,south-southeast,5.9,Yes
2022/06/23,20:20,0.155,0.142,0.228,0.219,0.216,0.121,0.078,south-southeast,5.9,Yes
2022/06/23,20:30,0.155,0.142,0.226,0.222,0.219,0.120,0.077,south-southeast,6.9,Yes
2022/06/23,20:40,0.154,0.143,0.228,0.220,0.219,0.121,0.078,south,6.7,Yes
2022/06/23,20:50,0.155,0.142,0.227,0.220,0.216,0.120,0.078,south,6.6,Yes
2022/06/23,21:00,0.153,0.142,0.226,0.222,0.219,0.120,0.077,south,6.3,Yes
2022/06/23,21:10,0.155,0.142,0.228,0.219,0.216,0.121,0.077,south,6.4,Yes
2022/06/23,21:20,0.154,0.142,0.226,0.220,0.218,0.120,0.077,south,5.7,Yes
2022/06/23,21:30,0.154,0.142,0.228,0.221,0.218,0.120,0.078,south-southeast,5.6,Yes
2022/06/23,21:40,0.155,0.143,0.229,0.220,0.215,0.121,0.077,south,5.9,Yes
2022/06/23,21:50,0.153,0.141,0.227,0.221,0.219,0.120,0.077,south,6.5,Yes
2022/06/23,22:00,0.154,0.143,0.228,0.220,0.217,0.121,0.078,south,6.7,Yes
2022/06/23,22:10,0.154,0.141,0.227,0.220,0.217,0.121,0.077,south,6.0,Yes
2022/06/23,22:20,0.152,0.144,0.227,0.221,0.219,0.120,0.078,south,6.7,Yes
2022/06/23,22:30,0.155,0.142,0.228,0.219,0.217,0.121,0.078,south,5.6,Yes
2022/06/23,22:40,0.153,0.142,0.227,0.221,0.218,0.121,0.077,south,5.4,Yes
2022/06/23,22:50,0.153,0.142,0.228,0.220,0.219,0.120,0.078,south,5.0,Yes
2022/06/23,23:00,0.154,0.142,0.226,0.220,0.215,0.121,0.077,south,5.0,Yes
2022/06/23,23:10,0.153,0.142,0.228,0.221,0.219,0.120,0.077,south,4.8,Yes
2022/06/23,23:20,0.154,0.142,0.228,0.219,0.218,0.119,0.078,south,4.8,Yes
2022/06/23,23:30,0.154,0.141,0.226,0.220,0.217,0.122,0.078,south,6.1,Yes
2022/06/23,23:40,0.153,0.143,0.227,0.220,0.218,0.120,0.077,south-southeast,6.8,Yes
2022/06/23,23:50,0.155,0.141,0.227,0.220,0.216,0.120,0.077,south-southeast,7.2,Yes
